Regional Weather Roundup
Issued by NWS Newport/Morehead, NC

Home | Current Version | Previous Version | Text Only | Print | Product List | Glossary On
Versions: 1 2 3 4 5 6 7 8 9 10 11 12 13 14 15 16 17 18 19 20 21 22 23 24 25 26 27 28 29 30 31 32 33 34 35 36 37 38 39 40 41 42 43 44 45 46 47 48 49 50
000
ASUS42 KMHX 200922
RWRMHX
WEATHER ROUNDUP FOR EASTERN NORTH CAROLINA
NATIONAL WEATHER SERVICE NEWPORT/MOREHEAD CITY NC
500 AM EDT SUN APR 20 2014

NOTE: "FAIR" INDICATES FEW OR NO CLOUDS BELOW 12,000 FEET
WITH NO SIGNIFICANT WEATHER AND/OR OBSTRUCTIONS TO VISIBILITY

NCZ015>017-031-032-045>047-102-103-201000-
NORTH COAST

CITY           SKY/WX    TMP DP  RH WIND       PRES   REMARKS
EDENTON        CLOUDY    50  39  65 N8        30.15S
ELIZABETH CITY LGT RAIN  53  40  61 N15G23    30.15F
KITTY HAWK     CLOUDY    50  46  86 NE10G22   30.11S
MANTEO         CLOUDY    52  46  80 NE17G29   30.12S

$$

NCZ045>047-081-094-103-104-201000-
CENTRAL COAST

CITY           SKY/WX    TMP DP  RH WIND       PRES   REMARKS
FRISCO         LGT RAIN  52  52 100 NE14G26   30.05F FOG
SWANQUARTER      N/A     54 N/A N/A NE13G26   30.06S

$$

NCZ095-097-098-100-101-201000-
SOUTHERN COAST

CITY           SKY/WX    TMP DP  RH WIND       PRES   REMARKS
BEAUFORT       CLOUDY    57  54  89 N22G32    30.03F
CEDAR ISLAND     N/A     57 N/A N/A N23G37    30.09S
JACKSONVILLE   CLOUDY    52  52 100 N17G24    30.06F
NEWPORT          N/A     54  54 100 N12G21      N/A
PINEY ISLAND   LGT RAIN  58  57  97 N21G30    30.06S FOG
WILMINGTON     CLOUDY    55  51  86 N20G30    30.02F


$$

NCZ011>013-027>030-043-044-078>080-089-090>093-098-201000-
COASTAL PLAIN

CITY           SKY/WX    TMP DP  RH WIND       PRES   REMARKS
AHOSKIE        CLOUDY    51  36  57 N9        30.19S
CLINTON        LGT RAIN  51  44  77 NE10G16   30.12S
ELIZABETHTOWN  RAIN      50  48  93 N6        30.10R
GOLDSBORO      LGT RAIN  50  43  76 N12G20    30.12S
GREENVILLE     DRIZZLE   48  43  81 N9        30.16F
HAVELOCK       CLOUDY    54  51  90 NE17      30.08S
KENANSVILLE    DRIZZLE   49  41  72 NE10G17   30.12S
KINSTON        CLOUDY    50  43  76 N12       30.14S
NEW BERN       LGT RAIN  52  48  87 N12       30.11S
RICHLANDS      CLOUDY    48  48 100 N15G21    30.09S
ROANOKE RAPIDS NOT AVBL
ROCKY MOUNT    PTCLDY    51  37  58 N13       30.18R
WASHINGTON     CLOUDY    49  44  85 N9        30.13F
WHITEVILLE     CLOUDY    52  49  87 NE8G21    30.06S

$$

AMZ130-135-150-152-154-156-158-170-250-252-270-ANZ085-086-088-633-658-670-201000-
MARINE OBSERVATIONS

STATION/POSITION TIME  TEMP    WIND        PRES    WAVE   SWELL
                       AIR SEA DIR/SP/G            HT/PER HT/PER
                 (UTC) (F)     (DEG/KT/KT) (MB)    (FT/S) (FT/S)
CHESAPEAKE LIGHT 0900   49      40/ 27/ 29 1022.1
BUOY 44014       0900   52 48   30/ 21/ 25 1020.0    8/ 8
DUCK             0900   51 49   30/ 24/ 28 1019.4
2E DUCK          0900      47                N/A     7/ 7   2/11
OREGON INLET     0900   51 51   20/ 19/ 23 1019.0
BUOY 44095       0900      48                N/A     9/10   2/11
HATTERAS CG      0900   55 56   30/ 15/ 21 1017.7
DIAMOND BUOY     0900   65 75   40/ 29/ 33 1015.4   14/10  10/10
CAPE LOOKOUT     0900   57      20/ 26/ 31 1016.3
BEAUFORT LAB     0900   56 57   20/ 16/ 25 1016.2
30 SE NEW RIVER  0900   60 64   40/ 33/ 41 1014.0   10/ 6   3/11
5 SE WRIGHTSVILL 0900   58 59   30/ 21/ 29 1015.4
FRYING PAN BUOY  0900   63 68   40/ 31/ 39 1012.5   12/ 7
BUOY 41001       NOT AVBL
BUOY 41002       NOT AVBL
BUOY 41004       NOT AVBL

$$



USA.gov is the U.S. government's official web portal to all federal, state and local government web resources and services.